Regional Weather Roundup
Issued by NWS

Home | Current Version | Previous Version | Graphics & Text | Print | Product List | Glossary On
Versions: 1 2 3 4 5 6 7 8 9 10 11 12 13 14 15 16 17 18 19 20 21 22 23 24 25 26 27 28 29 30 31 32 33 34 35 36 37 38 39 40 41 42 43 44 45 46 47 48 49 50
000
ASUS43 KOAX 271710
RWRNE

WEATHER ROUNDUP FOR NEBRASKA
NATIONAL WEATHER SERVICE OMAHA NE
1200 PM CDT MON APR 27 2015

NOTES: SATELLITE DATA IS BEING USED TO AUGMENT CLOUD COVER ABOVE
       12000 FEET.
       "FAIR" INDICATES FEW OR NO CLOUDS BELOW 12,000 FEET WITH NO
       SIGNIFICANT WEATHER AND/OR OBSTRUCTIONS TO VISIBILITY.

  * THESE STATIONS DO NOT REPORT WEATHER SUCH AS RAIN...SNOW OR FOG.

NEZ001>004-019>022-054>056-271800-
NEBRASKA PANHANDLE

CITY           SKY/WX    TMP DP  RH WIND       PRES   REMARKS
SCOTTSBLUFF    CLOUDY    50  41  71 W5        30.29R
ALLIANCE       MOSUNNY   52  36  54 VRB3      30.26R
CHADRON        PTSUNNY   52  45  77 N10       30.29R
KIMBALL        CLOUDY    43  40  91 NE6       30.27S
SIDNEY         CLOUDY    49  36  61 NE7       30.28R
$$

NEZ057>060-069>072-079>082-271800-
SOUTHWEST NEBRASKA

CITY           SKY/WX    TMP DP  RH WIND       PRES   REMARKS
NORTH PLATTE   MOSUNNY   58  35  42 E6        30.25R
IMPERIAL       PTSUNNY   54  33  45 E12G21    30.25S
LEXINGTON      PTSUNNY   58  38  48 NE14      30.23S
MCCOOK         CLOUDY    57  32  38 NE13      30.23S
OGALLALA       PTSUNNY   56  36  47 E6        30.27R
$$

NEZ005>010-023>029-035>040-094-271800-
NORTH CENTRAL NEBRASKA

CITY           SKY/WX    TMP DP  RH WIND       PRES   REMARKS
VALENTINE      SUNNY     63  32  31 N6        30.24S
AINSWORTH      SUNNY     62  31  31 NE9       30.24R
BROKEN BOW     MOSUNNY   62  34  35 N9        30.22S
O`NEILL        MOSUNNY   64  36  35 N12       30.22S
ORD            MOSUNNY   64  34  32 NE12      30.20S
THEDFORD       SUNNY     61  35  37 N8        30.25S
$$

NEZ041-046>049-061>064-073>077-083>087-271800-
SOUTH CENTRAL NEBRASKA

CITY           SKY/WX    TMP DP  RH WIND       PRES   REMARKS
GRAND ISLAND   PTSUNNY   59  34  39 NE8       30.23R
AURORA         PTSUNNY   60  32  35 NE15      30.22S
HASTINGS       PTSUNNY   60  36  40 NE14      30.22R
HEBRON         PTSUNNY   58  28  32 NE12G17   30.20S
HOLDREGE       PTSUNNY   57  31  37 NE14G21   30.22S
KEARNEY *      PTSUNNY   59  36  41 E10G17    30.22S
YORK           PTSUNNY   61  34  36 E12       30.21F
$$

NEZ011>018-030>034-042>045-271800-
NORTHEAST NEBRASKA

CITY           SKY/WX    TMP DP  RH WIND       PRES   REMARKS
NORFOLK        SUNNY     62  33  33 W5        30.21F
ALBION         SUNNY     62  34  34 N8        30.21S
BLAIR          SUNNY     60  27  29 NE9       30.21S
COLUMBUS *     SUNNY     63  36  36 E10G16    30.23S
FREMONT        SUNNY     63  29  28 NE9       30.21S
TEKAMAH        SUNNY     64  30  27 NE10      30.21S
WAYNE          SUNNY     64  27  24 E9        30.22F
$$

NEZ050>053-065>068-078-088>093-271800-
SOUTHEAST NEBRASKA

CITY           SKY/WX    TMP DP  RH WIND       PRES   REMARKS
LINCOLN        MOSUNNY   63  31  30 NE13G20   30.21F
OMAHA EPPLEY   MOSUNNY   63  32  31 NE10G21   30.21S
BEATRICE       PTSUNNY   59  32  35 NE15G21   30.19F
FALLS CITY     PTSUNNY   60  38  43 E10       30.18F
NEBRASKA CITY  MOSUNNY   60  21  22 NE12G17   30.19F
PLATTSMOUTH    MOSUNNY   61  22  22 NE7       30.20S
$$

NEZ044-045-051>053-067-271800-
OMAHA AREA

CITY           SKY/WX    TMP DP  RH WIND       PRES   REMARKS
OMAHA EPPLEY   MOSUNNY   63  32  31 NE10G21   30.21S
BLAIR          SUNNY     60  27  29 NE9       30.21S
FREMONT        SUNNY     63  29  28 NE9       30.21S
MILLARD        SUNNY     61  31  32 N6        30.21S
OFFUTT AFB     SUNNY     62  32  31 NE10G18   30.20S
PLATTSMOUTH    MOSUNNY   61  22  22 NE7       30.20S
WAHOO          FAIR      62  28  28 NE14      30.21S
$$


USA.gov is the U.S. government's official web portal to all federal, state and local government web resources and services.